When you browse on this site, cookies collect data to enhance your experience and personalize the content and advertising you see.
Visit our Privacy Policy to learn more. By continuing to use the site, you agree to this use of cookies and data.
  • In Schweiz
  • Länderverzeichnis
  • Für 7 Tage
  • Wassertemperatur
  • Satellitenkarten
  • Wetterkarte
  • Widgets
  • user-avatar
    Anmelden

    Stündliche Wetter Tomakivs'ke

    Heute, 26 April, Freitag

    Zeit Temperatur Niederschläge Wind Luftdruck Luftfeuchtigkeit
    00:00 +14°C° 0 mm 4 m/S 759 mmHg 56%
    01:00 +14°C° 0 mm 4 m/S 759 mmHg 57%
    02:00 +13°C° 0 mm 3 m/S 758 mmHg 59%
    03:00 +13°C° 0 mm 3 m/S 758 mmHg 59%
    04:00 +12°C° 0 mm 3 m/S 758 mmHg 60%
    05:00 +13°C° 0 mm 2 m/S 758 mmHg 60%
    06:00 +15°C° 0 mm 2 m/S 758 mmHg 56%
    07:00 +17°C° 0 mm 3 m/S 758 mmHg 52%
    08:00 +18°C° 0 mm 3 m/S 758 mmHg 47%
    09:00 +20°C° 0 mm 3 m/S 758 mmHg 44%
    10:00 +21°C° 0 mm 3 m/S 758 mmHg 40%
    11:00 +23°C° 0 mm 2 m/S 758 mmHg 37%
    12:00 +24°C° 0 mm 3 m/S 757 mmHg 35%
    13:00 +24°C° 0 mm 3 m/S 757 mmHg 34%
    14:00 +25°C° 0 mm 3 m/S 757 mmHg 33%
    15:00 +24°C° 0 mm 3 m/S 756 mmHg 34%
    16:00 +24°C° 0 mm 3 m/S 756 mmHg 35%
    17:00 +24°C° 0 mm 3 m/S 756 mmHg 36%
    18:00 +21°C° 0 mm 3 m/S 756 mmHg 39%
    19:00 +19°C° 0 mm 2 m/S 756 mmHg 41%
    20:00 +17°C° 0 mm 2 m/S 756 mmHg 44%
    21:00 +16°C° 0 mm 2 m/S 756 mmHg 46%
    22:00 +16°C° 0 mm 2 m/S 756 mmHg 47%
    23:00 +14°C° 0 mm 3 m/S 756 mmHg 48%

    Morgen, 27 April, Samstag

    Zeit Temperatur Niederschläge Wind Luftdruck Luftfeuchtigkeit
    00:00 +14°C° 0 mm 2 m/S 756 mmHg 49%
    01:00 +14°C° 0 mm 2 m/S 756 mmHg 50%
    02:00 +14°C° 0 mm 2 m/S 756 mmHg 51%
    03:00 +13°C° 0 mm 2 m/S 755 mmHg 52%
    04:00 +13°C° 0 mm 2 m/S 755 mmHg 54%
    05:00 +12°C° 0 mm 2 m/S 755 mmHg 55%
    06:00 +14°C° 0 mm 2 m/S 755 mmHg 49%
    07:00 +16°C° 0 mm 2 m/S 755 mmHg 44%
    08:00 +18°C° 0 mm 2 m/S 755 mmHg 39%
    09:00 +19°C° 0 mm 2 m/S 755 mmHg 37%
    10:00 +21°C° 0 mm 2 m/S 755 mmHg 34%
    11:00 +22°C° 0 mm 3 m/S 755 mmHg 32%
    12:00 +22°C° 0 mm 3 m/S 754 mmHg 32%
    13:00 +24°C° 0 mm 3 m/S 754 mmHg 32%
    14:00 +24°C° 0 mm 3 m/S 753 mmHg 31%
    15:00 +24°C° 0 mm 3 m/S 753 mmHg 33%
    16:00 +24°C° 0 mm 3 m/S 752 mmHg 34%
    17:00 +24°C° 0 mm 3 m/S 752 mmHg 36%
    18:00 +21°C° 0 mm 2 m/S 752 mmHg 39%
    19:00 +19°C° 0 mm 2 m/S 752 mmHg 43%
    20:00 +19°C° 0 mm 1 m/S 752 mmHg 46%
    21:00 +17°C° 0 mm 2 m/S 752 mmHg 50%
    22:00 +16°C° 0 mm 2 m/S 752 mmHg 54%
    23:00 +15°C° 0 mm 2 m/S 752 mmHg 58%

    übermorgen, 28 April, Sonntag

    Zeit Temperatur Niederschläge Wind Luftdruck Luftfeuchtigkeit
    00:00 +15°C° 0 mm 2 m/S 751 mmHg 61%
    01:00 +14°C° 0 mm 2 m/S 751 mmHg 63%
    02:00 +13°C° 0 mm 2 m/S 751 mmHg 66%
    03:00 +13°C° 0 mm 2 m/S 751 mmHg 66%
    04:00 +13°C° 0 mm 2 m/S 751 mmHg 67%
    05:00 +12°C° 0 mm 1 m/S 751 mmHg 67%
    06:00 +14°C° 0 mm 2 m/S 751 mmHg 61%
    07:00 +16°C° 0 mm 2 m/S 751 mmHg 54%
    08:00 +17°C° 0 mm 2 m/S 751 mmHg 48%
    09:00 +19°C° 0 mm 3 m/S 751 mmHg 46%
    10:00 +20°C° 0 mm 3 m/S 751 mmHg 44%
    11:00 +22°C° 0 mm 4 m/S 750 mmHg 41%
    12:00 +23°C° 0 mm 4 m/S 750 mmHg 40%
    13:00 +23°C° 0 mm 4 m/S 750 mmHg 38%
    14:00 +25°C° 0 mm 4 m/S 750 mmHg 36%
    15:00 +25°C° 0 mm 4 m/S 749 mmHg 37%
    16:00 +24°C° 0 mm 3 m/S 749 mmHg 38%
    17:00 +24°C° 0 mm 3 m/S 749 mmHg 39%
    18:00 +21°C° 0 mm 2 m/S 749 mmHg 45%
    19:00 +20°C° 0 mm 2 m/S 749 mmHg 50%
    20:00 +18°C° 0 mm 2 m/S 749 mmHg 55%
    21:00 +17°C° 0 mm 2 m/S 749 mmHg 59%
    22:00 +16°C° 0 mm 2 m/S 749 mmHg 62%
    23:00 +14°C° 0 mm 3 m/S 749 mmHg 66%

    29 April, Montag

    Zeit Temperatur Niederschläge Wind Luftdruck Luftfeuchtigkeit
    00:00 +15°C° 0 mm 2 m/S 749 mmHg 65%
    01:00 +14°C° 0 mm 2 m/S 749 mmHg 65%
    02:00 +14°C° 0 mm 2 m/S 749 mmHg 64%
    03:00 +14°C° 0 mm 2 m/S 749 mmHg 64%
    04:00 +13°C° 0 mm 2 m/S 749 mmHg 63%
    05:00 +13°C° 0 mm 1 m/S 749 mmHg 63%
    06:00 +15°C° 0 mm 1 m/S 749 mmHg 57%
    07:00 +16°C° 0 mm 1 m/S 749 mmHg 52%
    08:00 +18°C° 0 mm 2 m/S 749 mmHg 46%
    09:00 +19°C° 0 mm 2 m/S 749 mmHg 45%
    10:00 +20°C° 0 mm 2 m/S 749 mmHg 43%
    11:00 +23°C° 0 mm 2 m/S 749 mmHg 41%
    12:00 +23°C° 0 mm 2 m/S 749 mmHg 39%
    13:00 +24°C° 0 mm 2 m/S 749 mmHg 38%
    14:00 +24°C° 0 mm 3 m/S 748 mmHg 37%
    15:00 +24°C° 0.1 mm 3 m/S 748 mmHg 42%
    16:00 +22°C° 0.1 mm 3 m/S 748 mmHg 48%
    17:00 +21°C° 0.1 mm 3 m/S 748 mmHg 53%
    18:00 +19°C° 1.1 mm 3 m/S 748 mmHg 62%
    19:00 +18°C° 1.1 mm 4 m/S 748 mmHg 71%
    20:00 +15°C° 1.1 mm 5 m/S 748 mmHg 80%
    21:00 +15°C° 0.7 mm 4 m/S 748 mmHg 82%
    22:00 +14°C° 0.7 mm 3 m/S 748 mmHg 84%
    23:00 +15°C° 0.7 mm 2 m/S 748 mmHg 87%

    30 April, Dienstag

    Zeit Temperatur Niederschläge Wind Luftdruck Luftfeuchtigkeit
    00:00 +14°C° 0.1 mm 2 m/S 748 mmHg 87%
    01:00 +14°C° 0.1 mm 1 m/S 748 mmHg 87%
    02:00 +13°C° 0.1 mm 1 m/S 747 mmHg 87%
    03:00 +13°C° 0 mm 1 m/S 747 mmHg 87%
    04:00 +13°C° 0 mm 2 m/S 747 mmHg 86%
    05:00 +12°C° 0 mm 2 m/S 747 mmHg 85%
    06:00 +12°C° 0 mm 3 m/S 747 mmHg 82%
    07:00 +13°C° 0 mm 4 m/S 747 mmHg 78%
    08:00 +14°C° 0 mm 4 m/S 747 mmHg 74%
    09:00 +16°C° 0.2 mm 5 m/S 746 mmHg 69%
    10:00 +17°C° 0.2 mm 6 m/S 746 mmHg 63%
    11:00 +20°C° 0.2 mm 6 m/S 746 mmHg 58%
    12:00 +20°C° 0.5 mm 7 m/S 745 mmHg 54%
    13:00 +21°C° 0.5 mm 7 m/S 745 mmHg 49%
    14:00 +21°C° 0.5 mm 8 m/S 745 mmHg 45%
    15:00 +21°C° 0 mm 7 m/S 744 mmHg 48%
    16:00 +20°C° 0 mm 5 m/S 744 mmHg 51%
    17:00 +19°C° 0 mm 4 m/S 744 mmHg 54%
    18:00 +18°C° 0 mm 4 m/S 744 mmHg 58%
    19:00 +15°C° 0 mm 4 m/S 744 mmHg 62%
    20:00 +14°C° 0 mm 4 m/S 744 mmHg 66%
    21:00 +13°C° 0 mm 4 m/S 744 mmHg 69%
    22:00 +13°C° 0 mm 4 m/S 744 mmHg 73%
    23:00 +12°C° 0 mm 4 m/S 744 mmHg 76%

    1 Mai, Mittwoch

    Zeit Temperatur Niederschläge Wind Luftdruck Luftfeuchtigkeit
    00:00 +11°C° 0 mm 4 m/S 743 mmHg 80%
    01:00 +11°C° 0 mm 4 m/S 743 mmHg 84%
    02:00 +11°C° 0 mm 4 m/S 743 mmHg 87%
    03:00 +11°C° 0 mm 3 m/S 743 mmHg 88%
    04:00 +10°C° 0 mm 3 m/S 743 mmHg 89%
    05:00 +10°C° 0 mm 2 m/S 743 mmHg 90%
    06:00 +11°C° 0.3 mm 3 m/S 743 mmHg 89%
    07:00 +12°C° 0.3 mm 3 m/S 743 mmHg 88%
    08:00 +12°C° 0.3 mm 4 m/S 742 mmHg 87%
    09:00 +13°C° 0.6 mm 4 m/S 742 mmHg 84%
    10:00 +13°C° 0.6 mm 4 m/S 742 mmHg 81%
    11:00 +14°C° 0.6 mm 4 m/S 742 mmHg 78%
    12:00 +14°C° 1.4 mm 4 m/S 742 mmHg 76%
    13:00 +14°C° 1.4 mm 4 m/S 742 mmHg 75%
    14:00 +14°C° 1.4 mm 4 m/S 742 mmHg 73%
    15:00 +13°C° 0.3 mm 5 m/S 742 mmHg 75%
    16:00 +11°C° 0.3 mm 6 m/S 743 mmHg 77%
    17:00 +10°C° 0.3 mm 7 m/S 743 mmHg 79%
    18:00 +10°C° 0 mm 6 m/S 743 mmHg 79%
    19:00 +9°C° 0 mm 6 m/S 744 mmHg 79%
    20:00 +8°C° 0 mm 5 m/S 744 mmHg 78%
    21:00 +7°C° 0 mm 5 m/S 745 mmHg 81%
    22:00 +7°C° 0 mm 5 m/S 745 mmHg 83%
    23:00 +6°C° 0 mm 4 m/S 746 mmHg 85%
    Mehr zeigen